FW3943 Weather Reports


time (UTC)temp
C
wind
direction
speed
KPH
gust
KPH
rain 1hr
cm
rain 24hr
cm
rain mn
cm
humidity
%
barometer
mb
20260505051526 6 216 6.4 17.7 0.00 0.58 0.00 100 1008.8
20260505041516 6 246 6.4 14.5 0.00 0.61 0.00 100 1007.8
20260505040014 6 202 6.4 14.5 0.00 0.61 0.00 100 1007.6
20260505034512 6 237 9.7 16.1 0.00 0.66 0.00 100 1007.5
20260505033010 7 229 11.3 20.9 0.00 0.66 0.00 100 1007.3
20260505031509 7 205 11.3 24.1 0.00 0.66 0.00 100 1007.0
20260505030003 7 235 14.5 22.5 0.00 0.66 0.00 100 1006.4
20260505024503 7 219 14.5 24.1 0.00 0.71 0.66 100 1006.6
20260505023001 7 215 12.9 19.3 0.00 0.71 0.66 100 1006.2
20260505021600 7 207 11.3 20.9 0.00 0.71 0.66 100 1006.2
20260505020100 7 202 12.9 24.1 0.00 0.71 0.66 100 1006.0
20260505014557 7 218 9.7 16.1 0.00 0.71 0.66 100 1006.0
20260505013058 7 226 6.4 17.7 0.00 0.71 0.66 100 1005.9
20260505011610 7 215 8.0 19.3 0.00 0.71 0.66 100 1005.9
20260505010053 8 213 8.0 16.1 0.00 0.71 0.66 100 1005.7
20260505004555 8 198 8.0 14.5 0.00 0.76 0.66 100 1005.6
20260505003054 8 166 6.4 19.3 0.00 0.76 0.66 100 1005.4
20260505001604 8 197 11.3 22.5 0.00 0.76 0.66 100 1005.4
20260505000104 9 228 6.4 17.7 0.00 0.76 0.66 100 1005.4
20260504234546 9 216 4.8 12.9 0.00 0.84 0.66 100 1004.9
20260504233102 8 208 12.9 22.5 0.00 0.84 0.66 100 1004.6
20260504231545 7 156 6.4 16.1 0.00 0.84 0.66 100 1004.5
20260504230043 8 188 12.9 22.5 0.00 0.84 0.66 100 1004.5
20260504224542 10 217 14.5 24.1 0.00 1.04 0.66 100 1004.2
20260504223037 12 229 14.5 29.0 0.00 1.04 0.66 100 1003.7
20260504221536 13 242 16.1 40.2 0.00 1.04 0.66 100 1003.7
20260504220035 13 227 14.5 38.6 0.00 1.04 0.66 100 1003.5
20260504214534 13 257 22.5 40.2 0.00 1.42 0.66 100 1003.5
20260504213037 13 233 19.3 29.0 0.00 1.42 0.66 100 1003.3
20260504211531 13 250 16.1 35.4 0.00 1.42 0.66 100 1003.2
20260504210031 13 248 22.5 40.2 0.00 1.42 0.66 100 1003.0
20260504204530 13 252 25.7 40.2 0.00 1.63 0.66 100 1002.7
20260504203027 13 237 14.5 38.6 0.00 1.63 0.66 100 1002.6
20260504201525 13 241 17.7 37.0 0.00 1.63 0.66 100 1002.5
20260504200023 13 248 24.1 37.0 0.00 1.63 0.66 100 1002.3
20260504194527 13 240 27.4 49.9 0.00 1.73 0.66 100 1001.7
20260504193020 12 215 22.5 40.2 0.00 1.73 0.66 100 1001.3
20260504191520 13 286 22.5 40.2 0.00 1.73 0.66 100 1001.1
20260504190018 12 276 27.4 43.5 0.00 1.73 0.66 100 1001.1
20260504184513 12 283 29.0 46.7 0.00 1.80 0.66 100 1000.9
20260504183013 12 232 24.1 40.2 0.00 1.80 0.66 100 1001.0
20260504181511 12 290 27.4 45.1 0.00 1.80 0.66 100 1000.9
20260504180007 11 251 22.5 40.2 0.00 1.80 0.66 100 1000.9
20260504174509 11 231 24.1 49.9 0.00 1.80 0.66 100 1000.8
20260504173005 11 225 20.9 51.5 0.00 1.80 0.66 100 1000.7
20260504171601 10 272 30.6 48.3 0.00 1.80 0.66 100 1000.5
20260504171501 10 283 27.4 48.3 0.00 1.80 0.66 100 1000.6
20260504170158 10 233 25.7 49.9 0.00 1.80 0.66 100 1000.3
20260504120105 3 270 35.4 61.2 0.10 1.75 0.61 100 992.3
20260504081518 2 258 25.7 54.7 0.05 1.42 0.28 100 982.2